GFSNIL_prec_precacc_198.txt.gz
Total_Precipitation_Accumulation
0.27 0.24 0.25 0.22 0.24 0.25 0.69 1.33 1.97 1.60 1.42 1.62 1.42 1.76 2.00 1.99 2.10 2.16 2.15 2.12 1.88 1.66
0.57 0.41 0.35 0.37 0.48 0.49 0.68 1.10 2.00 2.71 2.45 2.29 2.47 2.09 2.34 2.50 2.31 2.31 2.21 1.83 2.02 1.94
0.62 0.61 0.51 0.61 1.09 1.50 1.12 1.43 1.57 2.24 3.15 3.38 3.25 3.27 3.00 2.91 2.50 2.35 2.15 1.92 1.82 1.68
1.17 1.41 1.34 1.27 1.82 2.11 1.78 1.94 2.63 2.53 2.55 2.97 3.03 3.57 3.61 3.13 2.82 2.54 2.23 1.86 1.64 1.33
1.29 1.78 2.17 2.32 2.46 3.18 3.58 2.91 2.97 2.85 2.18 2.00 2.03 2.31 3.18 3.06 2.52 2.33 1.99 1.59 1.40 1.29
2.07 2.00 2.22 2.18 2.11 2.34 2.82 2.53 2.79 2.67 2.43 2.02 1.72 1.67 1.71 2.43 2.51 1.89 1.71 1.62 1.50 1.30
1.50 1.89 2.09 2.32 2.38 2.83 2.70 2.79 2.91 3.11 2.09 1.61 1.41 1.21 1.09 1.08 1.54 1.85 1.50 1.59 1.60 1.44
1.10 1.30 1.35 1.49 1.72 1.88 2.15 2.41 2.79 2.91 2.40 1.61 1.44 1.33 1.11 1.04 1.03 1.36 1.70 1.52 1.47 1.46
0.88 0.91 1.00 1.01 1.09 1.09 1.13 1.13 1.30 1.68 2.29 2.25 1.75 1.93 1.57 1.19 1.05 1.10 1.34 1.98 1.80 1.44
0.76 0.86 0.68 0.69 0.69 0.72 0.79 1.03 1.01 0.92 1.14 1.61 1.65 2.43 2.39 2.29 1.21 1.19 1.28 1.37 1.97 1.85
0.60 0.47 0.47 0.49 0.60 0.62 0.77 0.78 0.75 0.84 0.81 0.89 1.12 1.73 1.98 3.03 2.81 1.76 1.50 1.67 1.64 1.92
0.71 0.77 0.84 0.64 0.59 0.58 0.67 0.79 0.75 0.65 0.62 0.65 0.61 0.98 1.26 1.70 2.21 2.63 2.51 1.76 1.65 1.67
1.10 0.96 0.83 0.68 0.61 0.62 0.59 0.63 0.62 0.75 0.91 0.97 0.64 1.00 1.02 1.52 1.67 1.79 2.09 2.70 2.15 2.15
1.20 1.11 0.98 0.78 0.57 0.55 0.67 0.78 0.79 0.76 0.75 0.76 0.85 1.01 1.19 1.23 1.48 2.03 1.91 1.70 1.93 1.87

GFSNIL_prec_precacc_201.txt.gz
Total_Precipitation_Accumulation
0.33 0.31 0.33 0.30 0.31 0.30 0.74 1.37 1.98 1.60 1.43 1.63 1.42 1.76 2.00 1.99 2.10 2.16 2.15 2.12 1.88 1.66
0.69 0.64 0.63 0.72 0.90 0.97 1.16 1.45 2.13 2.72 2.46 2.29 2.47 2.10 2.35 2.51 2.32 2.33 2.23 1.84 2.03 1.94
0.86 0.80 0.71 0.85 1.29 1.65 1.26 1.58 1.62 2.25 3.15 3.38 3.26 3.28 3.02 2.93 2.52 2.38 2.18 1.94 1.83 1.68
1.51 1.78 1.65 1.47 1.94 2.18 1.82 1.99 2.65 2.55 2.59 2.99 3.05 3.60 3.68 3.21 2.91 2.65 2.34 1.96 1.76 1.45
1.32 1.88 2.38 2.56 2.67 3.27 3.65 2.99 3.06 2.93 2.24 2.05 2.09 2.38 3.26 3.13 2.58 2.38 2.06 1.67 1.47 1.36
2.07 2.02 2.28 2.31 2.27 2.47 2.91 2.61 2.88 2.76 2.49 2.06 1.79 1.78 1.83 2.52 2.58 1.96 1.77 1.68 1.55 1.37
1.51 1.90 2.10 2.36 2.51 3.04 2.98 3.11 3.21 3.34 2.24 1.72 1.52 1.29 1.14 1.12 1.58 1.89 1.55 1.64 1.64 1.47
1.11 1.30 1.36 1.50 1.73 1.92 2.24 2.54 2.95 3.09 2.57 1.72 1.48 1.35 1.12 1.05 1.03 1.37 1.71 1.53 1.47 1.46
0.88 0.91 1.01 1.01 1.10 1.11 1.17 1.20 1.39 1.76 2.34 2.28 1.76 1.94 1.58 1.19 1.06 1.10 1.34 1.99 1.80 1.44
0.76 0.86 0.68 0.70 0.70 0.73 0.81 1.06 1.05 0.96 1.17 1.64 1.68 2.44 2.39 2.29 1.21 1.19 1.28 1.37 1.97 1.85
0.60 0.47 0.47 0.49 0.61 0.63 0.77 0.78 0.76 0.86 0.83 0.92 1.15 1.74 1.98 3.03 2.81 1.76 1.50 1.67 1.64 1.92
0.71 0.77 0.84 0.64 0.59 0.59 0.68 0.80 0.76 0.66 0.64 0.67 0.62 0.98 1.26 1.70 2.21 2.63 2.51 1.76 1.65 1.67
1.10 0.96 0.83 0.68 0.61 0.63 0.60 0.65 0.64 0.79 0.94 0.98 0.65 1.00 1.02 1.52 1.67 1.79 2.09 2.70 2.15 2.15
1.21 1.11 0.98 0.79 0.58 0.56 0.69 0.79 0.83 0.81 0.81 0.80 0.87 1.01 1.19 1.23 1.48 2.03 1.91 1.70 1.93 1.87

GFSNIL_prec_precacc_204.txt.gz
Total_Precipitation_Accumulation
0.34 0.31 0.33 0.31 0.34 0.34 0.78 1.41 2.07 1.72 1.57 1.80 1.61 1.94 2.15 2.11 2.13 2.16 2.15 2.12 1.88 1.66
0.69 0.65 0.65 0.75 0.94 1.04 1.27 1.68 2.56 3.28 2.98 2.76 2.83 2.28 2.46 2.59 2.37 2.34 2.23 1.84 2.03 1.94
0.86 0.81 0.72 0.91 1.47 1.87 1.48 1.85 1.98 2.60 3.44 3.59 3.43 3.40 3.10 2.99 2.55 2.40 2.21 1.98 1.86 1.71
1.51 1.78 1.66 1.50 1.99 2.29 1.97 2.12 2.80 2.71 2.77 3.18 3.19 3.71 3.80 3.34 3.03 2.77 2.46 2.04 1.80 1.48
1.32 1.88 2.38 2.56 2.69 3.37 3.74 3.08 3.17 3.06 2.41 2.21 2.26 2.55 3.41 3.28 2.71 2.47 2.11 1.71 1.50 1.37
2.07 2.02 2.29 2.31 2.28 2.50 2.95 2.66 2.92 2.87 2.67 2.29 2.05 2.07 2.12 2.77 2.75 2.03 1.79 1.69 1.56 1.38
1.51 1.90 2.11 2.38 2.55 3.12 3.08 3.23 3.35 3.49 2.42 1.95 1.82 1.62 1.41 1.29 1.66 1.92 1.55 1.64 1.64 1.49
1.11 1.31 1.36 1.51 1.77 2.02 2.41 2.76 3.23 3.37 2.87 2.04 1.75 1.54 1.22 1.10 1.06 1.38 1.72 1.53 1.47 1.47
0.88 0.91 1.01 1.03 1.12 1.14 1.22 1.27 1.54 1.94 2.53 2.46 1.88 2.02 1.63 1.21 1.06 1.11 1.34 1.99 1.80 1.44
0.77 0.86 0.69 0.71 0.73 0.77 0.84 1.10 1.09 1.01 1.21 1.67 1.71 2.48 2.41 2.30 1.21 1.19 1.28 1.37 1.97 1.85
0.60 0.47 0.47 0.50 0.62 0.65 0.81 0.83 0.81 0.90 0.87 0.95 1.16 1.75 1.98 3.04 2.81 1.76 1.50 1.67 1.64 1.92
0.71 0.77 0.84 0.64 0.59 0.60 0.70 0.82 0.78 0.68 0.67 0.70 0.64 0.99 1.26 1.70 2.21 2.63 2.51 1.76 1.65 1.67
1.10 0.96 0.83 0.68 0.61 0.63 0.60 0.65 0.66 0.81 0.97 1.01 0.68 1.02 1.03 1.52 1.67 1.79 2.09 2.70 2.15 2.15
1.21 1.12 1.00 0.80 0.59 0.57 0.71 0.81 0.85 0.82 0.82 0.82 0.89 1.02 1.21 1.24 1.48 2.03 1.91 1.70 1.93 1.87

GFSNIL_prec_precacc_210.txt.gz
Total_Precipitation_Accumulation
0.34 0.31 0.33 0.31 0.34 0.34 0.78 1.42 2.07 1.72 1.59 1.82 1.64 2.00 2.24 2.24 2.34 2.32 2.25 2.18 1.91 1.68
0.69 0.65 0.65 0.75 0.94 1.04 1.27 1.68 2.56 3.28 3.01 2.83 2.95 2.51 2.72 2.84 2.62 2.60 2.45 1.98 2.12 2.01
0.86 0.81 0.72 0.91 1.47 1.87 1.48 1.85 1.98 2.60 3.46 3.62 3.47 3.49 3.22 3.12 2.69 2.54 2.33 2.08 1.95 1.78
1.51 1.78 1.66 1.50 2.00 2.29 1.97 2.13 2.81 2.72 2.77 3.19 3.20 3.74 3.85 3.41 3.14 2.90 2.60 2.20 1.95 1.58
1.32 1.88 2.38 2.56 2.70 3.37 3.75 3.12 3.23 3.13 2.49 2.29 2.33 2.61 3.47 3.35 2.81 2.62 2.31 1.91 1.70 1.56
2.07 2.02 2.29 2.31 2.29 2.50 2.96 2.69 3.00 2.94 2.75 2.40 2.24 2.34 2.39 3.03 3.01 2.34 2.11 1.96 1.76 1.55
1.51 1.90 2.11 2.38 2.55 3.12 3.11 3.27 3.44 3.65 2.62 2.16 2.00 1.82 1.71 1.74 2.22 2.45 2.01 2.03 1.94 1.72
1.11 1.31 1.36 1.51 1.77 2.03 2.47 2.86 3.40 3.57 3.11 2.36 2.17 2.03 1.72 1.58 1.51 1.81 2.13 1.92 1.77 1.72
0.89 0.91 1.01 1.03 1.12 1.15 1.23 1.29 1.62 2.24 2.93 2.91 2.36 2.58 2.26 1.89 1.66 1.60 1.72 2.30 2.07 1.68
0.77 0.87 0.70 0.71 0.74 0.78 0.89 1.17 1.19 1.16 1.45 2.03 2.17 3.00 2.91 2.76 1.63 1.54 1.60 1.66 2.22 2.05
0.61 0.47 0.47 0.50 0.62 0.66 0.84 0.90 0.93 1.07 1.05 1.17 1.39 1.99 2.24 3.30 3.05 2.00 1.71 1.84 1.77 2.03
0.72 0.77 0.84 0.64 0.59 0.61 0.70 0.84 0.81 0.73 0.73 0.76 0.73 1.09 1.36 1.79 2.30 2.72 2.59 1.81 1.67 1.69
1.13 0.96 0.83 0.68 0.61 0.63 0.60 0.66 0.67 0.83 0.98 1.02 0.69 1.03 1.04 1.54 1.69 1.83 2.10 2.70 2.15 2.15
1.21 1.13 1.00 0.80 0.60 0.58 0.72 0.83 0.87 0.85 0.83 0.82 0.89 1.03 1.21 1.24 1.48 2.03 1.91 1.70 1.93 1.87

GFSNIL_prec_precacc_213.txt.gz
Total_Precipitation_Accumulation
0.34 0.31 0.33 0.31 0.34 0.34 0.78 1.42 2.07 1.73 1.59 1.82 1.64 2.00 2.24 2.26 2.37 2.37 2.29 2.22 1.94 1.71
0.69 0.65 0.65 0.75 0.94 1.04 1.27 1.68 2.56 3.28 3.01 2.83 2.96 2.52 2.72 2.84 2.63 2.67 2.53 2.08 2.23 2.08
0.86 0.81 0.72 0.91 1.47 1.87 1.48 1.85 1.98 2.60 3.46 3.62 3.48 3.49 3.22 3.12 2.69 2.56 2.39 2.16 2.04 1.88
1.51 1.78 1.66 1.50 2.00 2.29 1.97 2.13 2.81 2.72 2.77 3.19 3.20 3.74 3.85 3.41 3.14 2.90 2.62 2.25 2.02 1.64
1.32 1.88 2.38 2.56 2.70 3.37 3.75 3.12 3.23 3.13 2.49 2.29 2.33 2.61 3.47 3.35 2.81 2.63 2.33 1.95 1.77 1.65
2.07 2.02 2.29 2.31 2.29 2.50 2.96 2.69 3.00 2.94 2.75 2.40 2.24 2.34 2.40 3.04 3.03 2.37 2.17 2.04 1.90 1.75
1.51 1.90 2.11 2.38 2.55 3.12 3.11 3.27 3.44 3.65 2.62 2.16 2.00 1.82 1.72 1.75 2.25 2.55 2.16 2.20 2.21 2.04
1.11 1.31 1.36 1.51 1.77 2.03 2.47 2.86 3.40 3.57 3.11 2.36 2.17 2.04 1.74 1.60 1.56 1.95 2.38 2.26 2.17 2.13
0.89 0.91 1.01 1.03 1.12 1.15 1.23 1.29 1.62 2.24 2.93 2.92 2.37 2.59 2.29 1.94 1.73 1.73 2.00 2.67 2.49 2.09
0.77 0.87 0.70 0.71 0.74 0.78 0.89 1.17 1.19 1.16 1.46 2.03 2.18 3.03 2.96 2.88 1.85 1.80 1.83 1.89 2.46 2.29
0.61 0.47 0.47 0.50 0.62 0.66 0.84 0.90 0.93 1.07 1.05 1.17 1.39 2.01 2.30 3.40 3.18 2.16 1.89 2.01 1.92 2.17
0.72 0.77 0.84 0.64 0.59 0.61 0.70 0.84 0.81 0.73 0.73 0.76 0.73 1.10 1.37 1.81 2.34 2.78 2.67 1.93 1.81 1.82
1.17 1.03 0.87 0.68 0.61 0.63 0.60 0.66 0.67 0.83 0.98 1.02 0.69 1.03 1.04 1.54 1.70 1.84 2.13 2.74 2.18 2.20
1.29 1.23 1.02 0.80 0.60 0.58 0.72 0.83 0.87 0.85 0.83 0.82 0.89 1.03 1.21 1.24 1.48 2.03 1.91 1.70 1.95 1.88